FW1466 Weather Reports


Display with metric or nautical units.
time (UTC)temp
F
wind
direction
speed
MPH
gust
MPH
rain 1hr
in
rain 24hr
in
rain mn
in
humidity
%
barometer
mb
20220701050047 73 162 0.0 0.0 0.00 0.00 0.00 69 1013.9
20220701045546 74 162 0.0 0.0 0.00 0.00 0.00 70 1014.0
20220701045046 74 162 0.0 2.0 0.00 0.00 0.00 69 1013.9
20220701044545 74 162 0.0 2.0 0.00 0.00 0.00 69 1013.8
20220701044048 74 152 0.0 2.0 0.00 0.00 0.00 68 1013.8
20220701043546 74 151 0.0 2.0 0.00 0.00 0.00 68 1014.0
20220701043046 74 150 0.0 1.0 0.00 0.00 0.00 68 1013.9
20220701042545 75 150 0.0 3.0 0.00 0.00 0.00 67 1013.7
20220701042047 75 150 0.0 3.0 0.00 0.00 0.00 67 1013.7
20220701041545 75 149 0.0 2.0 0.00 0.00 0.00 67 1014.1
20220701041049 75 148 0.0 5.0 0.00 0.00 0.00 67 1013.6
20220701040545 75 146 0.0 5.0 0.00 0.00 0.00 66 1013.7
20220701040046 75 164 0.0 3.0 0.00 0.00 0.00 66 1013.6
20220701035544 75 155 0.0 3.0 0.00 0.00 0.00 65 1013.6
20220701035144 76 153 0.0 3.0 0.00 0.00 0.00 65 1013.7
20220701034544 76 184 0.0 4.0 0.00 0.00 0.00 64 1013.8
20220701034046 76 146 0.0 4.0 0.00 0.00 0.00 64 1013.7
20220701033543 76 136 0.0 2.0 0.00 0.00 0.00 63 1013.7
20220701033043 76 136 0.0 2.0 0.00 0.00 0.00 63 1013.8
20220701032542 76 173 0.0 2.0 0.00 0.00 0.00 62 1013.7
20220701032045 77 171 0.0 2.0 0.00 0.00 0.00 62 1013.7
20220701031542 77 174 0.0 6.0 0.00 0.00 0.00 61 1013.7
20220701031044 77 176 1.0 6.0 0.00 0.00 0.00 61 1013.6
20220701030544 77 128 0.0 4.0 0.00 0.00 0.00 60 1013.6
20220701030045 78 126 0.0 4.0 0.00 0.00 0.00 60 1013.8
20220701025541 78 128 0.0 4.0 0.00 0.00 0.00 59 1013.8
20220701025044 78 121 0.0 2.0 0.00 0.00 0.00 59 1013.6
20220701024541 78 120 0.0 5.0 0.00 0.00 0.00 58 1013.6
20220701024040 78 146 0.0 7.0 0.00 0.00 0.00 58 1013.5
20220701023541 78 161 1.0 7.0 0.00 0.00 0.00 58 1013.6
20220701023041 79 161 0.0 3.0 0.00 0.00 0.00 58 1013.7
20220701022540 79 155 0.0 2.0 0.00 0.00 0.00 57 1013.6
20220701022039 79 147 0.0 2.0 0.00 0.00 0.00 57 1013.4
20220701021540 79 147 0.0 2.0 0.00 0.00 0.00 57 1013.4
20220701021039 79 148 0.0 5.0 0.00 0.00 0.00 58 1013.4
20220701020540 79 143 1.0 5.0 0.00 0.00 0.00 58 1013.5
20220701020044 79 211 0.0 5.0 0.00 0.00 0.00 58 1013.5
20220701015539 79 211 0.0 5.0 0.00 0.00 0.00 57 1013.4
20220701015039 80 155 0.0 4.0 0.00 0.00 0.00 57 1013.2
20220701014543 80 159 0.0 5.0 0.00 0.00 0.00 57 1013.3
20220701014038 80 232 0.0 5.0 0.00 0.00 0.00 58 1013.5
20220701013539 80 148 0.0 6.0 0.00 0.00 0.00 58 1013.4
20220701013038 80 225 1.0 6.0 0.00 0.00 0.00 57 1013.3
20220701012539 81 54 0.0 2.0 0.00 0.00 0.00 57 1013.3
20220701012038 81 47 0.0 2.0 0.00 0.00 0.00 57 1013.4
20220701011538 81 117 0.0 1.0 0.00 0.00 0.00 57 1013.3
20220701011038 82 94 0.0 2.0 0.00 0.00 0.00 56 1013.4
20220701010537 82 95 0.0 3.0 0.00 0.00 0.00 55 1013.3
20220701010037 82 165 0.0 7.0 0.00 0.00 0.00 55 1013.3
20220701005537 82 159 0.0 7.0 0.00 0.00 0.00 55 1013.4
20220701005036 82 74 1.0 4.0 0.00 0.00 0.00 55 1013.3
20220701004537 83 167 1.0 4.0 0.00 0.00 0.00 56 1013.3
20220701004036 83 175 0.0 8.0 0.00 0.00 0.00 56 1013.2
20220701003535 83 151 1.0 8.0 0.00 0.00 0.00 56 1013.2
20220701003036 83 188 0.0 3.0 0.00 0.00 0.00 55 1013.4
20220701002536 83 149 0.0 3.0 0.00 0.00 0.00 55 1013.3
20220701002035 83 172 1.0 3.0 0.00 0.00 0.00 55 1013.3
20220701001545 83 193 0.0 3.0 0.00 0.00 0.00 54 1013.2
20220701001038 83 86 1.0 4.0 0.00 0.00 0.00 54 1013.2
20220701000534 83 183 2.0 5.0 0.00 0.00 0.00 53 1013.3
20220701000035 84 90 0.0 3.0 0.00 0.00 0.00 53 1013.3
20220630235533 84 190 0.0 3.0 0.00 0.00 0.00 52 1013.4
20220630235034 84 185 1.0 4.0 0.00 0.00 0.00 51 1013.3
20220630234533 85 244 2.0 4.0 0.00 0.00 0.00 50 1013.3
20220630234034 85 83 1.0 5.0 0.00 0.00 0.00 50 1013.3
20220630233535 85 140 2.0 6.0 0.00 0.00 0.00 49 1013.3
20220630233032 85 138 2.0 8.0 0.00 0.00 0.00 49 1013.3
20220630232531 85 132 2.0 8.0 0.00 0.00 0.00 48 1013.4
20220630232032 86 142 1.0 9.0 0.00 0.00 0.00 48 1013.5
20220630231535 86 156 1.0 9.0 0.00 0.00 0.00 48 1013.6
20220630231032 86 226 1.0 7.0 0.00 0.00 0.00 50 1013.6
20220630230531 86 180 1.0 7.0 0.00 0.00 0.00 50 1013.5
20220630230034 86 108 2.0 10.0 0.00 0.00 0.00 50 1013.5
20220630225532 86 224 2.0 10.0 0.00 0.00 0.00 49 1013.5
20220630225030 86 155 2.0 8.0 0.00 0.00 0.00 50 1013.4
20220630224530 86 139 2.0 7.0 0.00 0.00 0.00 49 1013.4
20220630224030 86 138 2.0 7.0 0.00 0.00 0.00 48 1013.6
20220630223532 87 267 2.0 7.0 0.00 0.00 0.00 48 1013.5
20220630223030 87 220 1.0 8.0 0.00 0.00 0.00 49 1013.5
20220630222529 87 246 2.0 10.0 0.00 0.00 0.00 49 1013.5
20220630222030 87 136 1.0 7.0 0.00 0.00 0.00 50 1013.5
20220630221529 87 249 2.0 7.0 0.00 0.00 0.00 49 1013.7
20220630221028 87 286 1.0 6.0 0.00 0.00 0.00 49 1013.7
20220630220528 88 328 1.0 5.0 0.00 0.00 0.00 49 1013.7
20220630220028 88 109 1.0 6.0 0.00 0.00 0.00 49 1013.6
20220630215528 88 298 1.0 6.0 0.00 0.00 0.00 49 1013.6
20220630215028 89 259 2.0 6.0 0.00 0.00 0.00 48 1013.5
20220630214529 89 148 3.0 6.0 0.00 0.00 0.00 47 1013.6
20220630214028 89 155 3.0 6.0 0.00 0.00 0.00 49 1013.5
20220630213526 89 79 2.0 8.0 0.00 0.00 0.00 48 1013.8
20220630213036 88 259 2.0 7.0 0.00 0.00 0.00 48 1013.8
20220630212526 88 57 1.0 7.0 0.00 0.00 0.00 47 1013.8
20220630212025 88 72 1.0 9.0 0.00 0.00 0.00 47 1013.9
20220630211525 89 30 2.0 12.0 0.00 0.00 0.00 45 1013.9
20220630211024 89 263 2.0 12.0 0.00 0.00 0.00 46 1013.9
20220630210524 89 123 2.0 10.0 0.00 0.00 0.00 48 1014.1
20220630210024 90 355 3.0 10.0 0.00 0.00 0.00 45 1013.9
20220630205524 90 294 2.0 7.0 0.00 0.00 0.00 44 1013.9
20220630205026 90 161 2.0 7.0 0.00 0.00 0.00 47 1013.9
20220630204522 90 94 2.0 8.0 0.00 0.00 0.00 48 1014.0
20220630204022 90 270 2.0 8.0 0.00 0.00 0.00 48 1014.1
20220630203524 89 286 1.0 10.0 0.00 0.00 0.00 48 1014.2
20220630203021 89 110 2.0 10.0 0.00 0.00 0.00 48 1014.1
20220630202520 89 59 2.0 10.0 0.00 0.00 0.00 46 1014.2
20220630202023 89 126 2.0 10.0 0.00 0.00 0.00 48 1014.3
20220630201524 89 325 2.0 8.0 0.00 0.00 0.00 49 1014.2
20220630201020 89 292 3.0 9.0 0.00 0.00 0.00 50 1014.2
20220630200620 89 318 1.0 9.0 0.00 0.00 0.00 48 1014.1
20220630200019 90 138 1.0 6.0 0.00 0.00 0.00 48 1014.1
20220630195518 89 264 1.0 8.0 0.00 0.00 0.00 50 1014.3
20220630195017 89 110 1.0 8.0 0.00 0.00 0.00 51 1014.3
20220630194521 89 88 3.0 11.0 0.00 0.00 0.00 49 1014.3
20220630194017 90 283 2.0 11.0 0.00 0.00 0.00 48 1014.5
20220630193518 90 284 1.0 8.0 0.00 0.00 0.00 47 1014.4
20220630193017 90 267 3.0 8.0 0.00 0.00 0.00 48 1014.5
20220630192516 90 121 1.0 7.0 0.00 0.00 0.00 51 1014.3
20220630192015 89 116 3.0 7.0 0.00 0.00 0.00 49 1014.5
20220630191514 89 225 2.0 5.0 0.00 0.00 0.00 47 1014.6
20220630191013 89 306 1.0 9.0 0.00 0.00 0.00 48 1014.7
20220630190512 89 152 1.0 8.0 0.00 0.00 0.00 51 1014.8
20220630190012 89 149 2.0 16.0 0.00 0.00 0.00 49 1014.9
20220630185515 88 259 4.0 16.0 0.00 0.00 0.00 49 1014.9
20220630185010 88 289 2.0 8.0 0.00 0.00 0.00 50 1014.8
20220630184512 88 283 3.0 10.0 0.00 0.00 0.00 50 1014.6
20220630184009 88 159 4.0 10.0 0.00 0.00 0.00 49 1014.9
20220630183511 88 185 3.0 9.0 0.00 0.00 0.00 50 1015.0
20220630183008 88 135 2.0 10.0 0.00 0.00 0.00 50 1015.1
20220630182508 88 336 3.0 13.0 0.00 0.00 0.00 49 1015.0
20220630182007 88 165 2.0 13.0 0.00 0.00 0.00 52 1015.0
20220630181507 88 136 2.0 9.0 0.00 0.00 0.00 52 1015.2
20220630181006 88 237 3.0 9.0 0.00 0.00 0.00 51 1015.2
20220630180506 88 106 1.0 8.0 0.00 0.00 0.00 51 1015.0
20220630180005 88 326 2.0 6.0 0.00 0.00 0.00 53 1015.1
20220630175503 87 175 2.0 14.0 0.00 0.00 0.00 52 1015.2
20220630175002 87 185 3.0 14.0 0.00 0.00 0.00 50 1015.4
20220630174501 87 184 2.0 11.0 0.00 0.00 0.00 51 1015.5
20220630174001 87 178 1.0 11.0 0.00 0.00 0.00 52 1015.8
20220630173600 87 170 2.0 8.0 0.00 0.00 0.00 54 1015.7
20220630173100 87 131 2.0 9.0 0.00 0.00 0.00 52 1015.7
20220630172558 87 167 2.0 9.0 0.00 0.00 0.00 53 1015.8
20220630172057 87 266 4.0 11.0 0.00 0.00 0.00 52 1016.0
20220630171556 86 124 2.0 12.0 0.00 0.00 0.00 54 1016.1
20220630171056 86 160 3.0 12.0 0.00 0.00 0.00 54 1016.0
20220630170554 85 277 2.0 9.0 0.00 0.00 0.00 55 1016.0
20220630170134 85 155 3.0 9.0 0.00 0.00 0.00 55 1016.2
20220630165551 85 63 2.0 9.0 0.00 0.00 0.00 55 1016.2
20220630165051 85 287 2.0 8.0 0.00 0.00 0.00 53 1016.3
20220630164549 86 289 3.0 8.0 0.00 0.00 0.00 53 1016.5
20220630164049 86 273 1.0 8.0 0.00 0.00 0.00 55 1016.6
20220630163547 86 303 1.0 8.0 0.00 0.00 0.00 56 1016.6
20220630163046 85 150 1.0 7.0 0.00 0.00 0.00 58 1016.7
20220630162545 85 178 3.0 9.0 0.00 0.00 0.00 54 1016.8
20220630162047 85 140 3.0 9.0 0.00 0.00 0.00 55 1017.0
20220630161543 84 220 2.0 9.0 0.00 0.00 0.00 57 1017.0
20220630161042 84 100 3.0 10.0 0.00 0.00 0.00 56 1017.0
20220630160543 84 155 3.0 10.0 0.00 0.00 0.00 55 1016.9
20220630160042 84 136 3.0 8.0 0.00 0.00 0.00 57 1016.8
20220630155541 84 115 2.0 6.0 0.00 0.00 0.00 55 1016.9
20220630155041 84 315 3.0 8.0 0.00 0.00 0.00 55 1017.0
20220630154541 84 5 3.0 8.0 0.00 0.00 0.00 55 1017.1
20220630154040 84 274 3.0 10.0 0.00 0.00 0.00 54 1017.1
20220630153540 84 102 2.0 10.0 0.00 0.00 0.00 56 1017.3
20220630153038 84 279 3.0 9.0 0.00 0.00 0.00 56 1017.1
20220630152537 84 107 2.0 9.0 0.00 0.00 0.00 56 1017.1
20220630152039 83 210 3.0 10.0 0.00 0.00 0.00 56 1016.9
20220630151535 83 184 3.0 10.0 0.00 0.00 0.00 57 1017.1
20220630151033 83 184 1.0 8.0 0.00 0.00 0.00 57 1017.1
20220630150536 83 65 3.0 9.0 0.00 0.00 0.00 57 1017.1
20220630150029 82 288 2.0 9.0 0.00 0.00 0.00 59 1017.3
20220630145529 82 251 2.0 11.0 0.00 0.00 0.00 59 1017.4
20220630145029 82 163 2.0 10.0 0.00 0.00 0.00 58 1017.5
20220630144526 81 164 4.0 10.0 0.00 0.00 0.00 58 1017.6
20220630144027 81 286 2.0 15.0 0.00 0.00 0.00 59 1017.6
20220630143522 81 100 1.0 7.0 0.00 0.00 0.00 58 1017.7
20220630143021 81 214 2.0 8.0 0.00 0.00 0.00 62 1017.7
20220630142521 81 182 2.0 5.0 0.00 0.00 0.00 61 1017.7
20220630142018 81 168 1.0 5.0 0.00 0.00 0.00 61 1017.8
20220630141517 81 124 1.0 6.0 0.00 0.00 0.00 61 1018.1
20220630141016 80 146 0.0 8.0 0.00 0.00 0.00 62 1018.2
20220630140514 80 323 1.0 8.0 0.00 0.00 0.00 61 1018.2
20220630140014 80 283 2.0 5.0 0.00 0.00 0.00 62 1018.2
20220630135510 79 132 0.0 8.0 0.00 0.00 0.00 64 1018.1
20220630135012 79 121 1.0 8.0 0.00 0.00 0.00 65 1018.1
20220630134511 79 146 1.0 5.0 0.00 0.00 0.00 65 1017.9
20220630134006 78 30 1.0 5.0 0.00 0.00 0.00 66 1017.9
20220630133505 78 118 1.0 5.0 0.00 0.00 0.00 66 1018.1
20220630133004 77 300 1.0 5.0 0.00 0.00 0.00 67 1018.2
20220630132502 77 128 2.0 6.0 0.00 0.00 0.00 67 1018.2
20220630132002 77 272 0.0 4.0 0.00 0.00 0.00 69 1018.2
20220630131601 76 238 1.0 7.0 0.00 0.00 0.00 70 1018.2
20220630131058 76 164 1.0 7.0 0.00 0.00 0.00 69 1018.2
20220630130601 76 286 1.0 4.0 0.00 0.00 0.00 70 1018.2
20220630130056 75 263 1.0 3.0 0.00 0.01 0.00 71 1018.2
20220630125555 75 141 0.0 4.0 0.00 0.01 0.00 72 1018.1
20220630125054 74 130 1.0 4.0 0.00 0.01 0.00 73 1018.2
20220630124555 74 262 0.0 4.0 0.00 0.01 0.00 74 1018.4
20220630124052 73 74 0.0 2.0 0.00 0.01 0.00 75 1018.4
20220630123551 73 111 0.0 4.0 0.00 0.01 0.00 75 1018.5
20220630123051 72 175 1.0 4.0 0.00 0.01 0.00 77 1018.3
20220630122550 71 177 0.0 3.0 0.00 0.01 0.00 80 1018.3
20220630122048 70 141 0.0 2.0 0.00 0.01 0.00 80 1018.3
20220630121547 70 196 0.0 3.0 0.00 0.01 0.00 81 1018.3
20220630121048 69 126 0.0 4.0 0.00 0.01 0.00 83 1018.2
20220630120546 69 126 0.0 4.0 0.00 0.01 0.00 83 1018.3
20220630120045 69 284 0.0 4.0 0.00 0.01 0.00 83 1018.1
20220630115545 69 270 0.0 5.0 0.00 0.01 0.00 83 1017.9
20220630115044 69 161 0.0 6.0 0.00 0.01 0.00 83 1017.8
20220630114549 69 163 2.0 6.0 0.00 0.01 0.00 83 1017.8
20220630114044 68 155 1.0 6.0 0.00 0.01 0.00 84 1017.9
20220630113543 68 189 2.0 7.0 0.00 0.01 0.00 85 1017.9
20220630113042 68 153 2.0 7.0 0.00 0.01 0.00 86 1018.1
20220630112543 68 161 1.0 4.0 0.00 0.01 0.00 87 1018.3
20220630112041 67 206 0.0 0.0 0.00 0.01 0.00 87 1018.5
20220630111549 67 206 0.0 0.0 0.00 0.01 0.00 87 1018.8
20220630111039 67 206 0.0 0.0 0.00 0.01 0.00 87 1018.8
20220630110539 67 206 0.0 0.0 0.00 0.01 0.00 87 1018.8
20220630110038 67 217 0.0 3.0 0.00 0.01 0.00 88 1018.9
20220630105537 67 233 0.0 3.0 0.00 0.01 0.00 88 1018.9
20220630105035 67 219 0.0 2.0 0.00 0.01 0.00 88 1018.9
20220630104536 66 224 0.0 2.0 0.00 0.01 0.00 88 1018.9
20220630104035 66 229 0.0 3.0 0.00 0.01 0.00 88 1018.9
20220630103534 66 232 0.0 3.0 0.00 0.01 0.00 89 1018.9
20220630103036 66 167 0.0 2.0 0.00 0.01 0.00 89 1018.8
20220630102534 66 167 0.0 2.0 0.00 0.01 0.00 89 1018.8
20220630102033 66 149 0.0 1.0 0.00 0.01 0.00 88 1018.9
20220630101534 66 149 0.0 1.0 0.00 0.01 0.00 88 1019.0
20220630101032 67 149 0.0 0.0 0.00 0.01 0.00 88 1019.0
20220630100534 67 149 0.0 1.0 0.00 0.01 0.00 87 1019.0
20220630100030 67 149 0.0 1.0 0.00 0.01 0.00 87 1019.2
20220630095532 67 149 0.0 0.0 0.00 0.01 0.00 87 1019.1
20220630095028 67 149 0.0 0.0 0.00 0.01 0.00 87 1019.0
20220630094528 67 149 0.0 0.0 0.00 0.01 0.00 87 1019.0
20220630094028 68 149 0.0 1.0 0.00 0.01 0.00 87 1019.0
20220630093527 68 149 0.0 1.0 0.00 0.01 0.00 87 1018.9
20220630093028 68 148 0.0 1.0 0.00 0.01 0.00 86 1019.0
20220630092526 68 148 0.0 1.0 0.00 0.01 0.00 86 1018.9
20220630092027 68 148 0.0 3.0 0.00 0.01 0.00 86 1019.0
20220630091526 68 151 0.0 1.0 0.00 0.01 0.00 86 1019.0
20220630091026 68 151 0.0 1.0 0.00 0.01 0.00 86 1019.0
20220630090527 68 151 0.0 0.0 0.00 0.01 0.00 86 1018.9
20220630090024 68 151 0.0 1.0 0.00 0.02 0.00 86 1018.9
20220630085523 68 151 0.0 0.0 0.00 0.02 0.00 85 1018.9
20220630085023 69 151 0.0 1.0 0.00 0.02 0.00 85 1019.0
20220630084527 69 151 0.0 2.0 0.00 0.02 0.00 85 1019.1
20220630084021 69 150 0.0 2.0 0.00 0.02 0.00 84 1019.2
20220630083520 69 179 0.0 1.0 0.00 0.02 0.00 84 1019.1
20220630083019 70 179 0.0 1.0 0.00 0.02 0.00 84 1019.2
20220630082519 70 179 0.0 1.0 0.00 0.02 0.00 83 1019.3
20220630082017 70 179 0.0 1.0 0.00 0.02 0.00 83 1019.3
20220630081526 70 179 0.0 1.0 0.00 0.02 0.00 82 1019.4
20220630081016 70 179 0.0 1.0 0.00 0.02 0.00 82 1019.4
20220630080515 71 179 0.0 1.0 0.00 0.02 0.00 81 1019.6
20220630080015 71 179 0.0 1.0 0.00 0.02 0.00 81 1019.4
20220630075513 71 179 0.0 2.0 0.00 0.02 0.00 81 1019.5
20220630075013 71 156 0.0 1.0 0.00 0.02 0.00 81 1019.5
20220630074512 71 155 0.0 1.0 0.00 0.02 0.00 80 1019.4
20220630074015 72 156 0.0 1.0 0.00 0.02 0.00 79 1019.5
20220630073511 72 156 0.0 0.0 0.00 0.02 0.00 78 1019.6
20220630073020 72 156 0.0 1.0 0.00 0.02 0.00 78 1019.8
20220630072509 73 156 0.0 2.0 0.00 0.02 0.00 77 1019.8
20220630072008 73 156 0.0 1.0 0.00 0.02 0.00 77 1019.8
20220630071514 73 156 0.0 0.0 0.00 0.02 0.00 77 1019.7
20220630071007 73 156 0.0 1.0 0.00 0.02 0.00 76 1019.8
20220630070507 73 156 0.0 2.0 0.00 0.02 0.00 76 1019.9
20220630070006 73 156 0.0 2.0 0.00 0.02 0.00 76 1020.5
20220630065505 73 156 0.0 3.0 0.00 0.02 0.00 76 1019.7
20220630065005 73 147 0.0 3.0 0.00 0.02 0.00 76 1019.7
20220630064504 74 169 0.0 4.0 0.00 0.02 0.00 76 1019.8
20220630064003 74 169 0.0 4.0 0.00 0.02 0.00 77 1019.7
20220630063502 74 127 0.0 1.0 0.00 0.02 0.00 77 1019.7
20220630063002 74 127 0.0 2.0 0.00 0.02 0.00 77 1019.6
20220630062503 74 121 0.0 4.0 0.00 0.02 0.00 77 1019.6
20220630062002 74 215 1.0 4.0 0.00 0.02 0.00 77 1019.6
20220630061503 74 251 0.0 3.0 0.00 0.02 0.00 77 1019.6
20220630061003 74 226 0.0 3.0 0.00 0.02 0.00 78 1019.6
20220630060502 74 202 1.0 6.0 0.00 0.02 0.00 78 1019.6
20220630060102 74 244 0.0 6.0 0.00 0.02 0.00 78 1019.5
20220630055602 74 119 0.0 4.0 0.00 0.02 0.00 78 1019.5
20220630055059 74 196 0.0 4.0 0.00 0.02 0.00 78 1019.6
20220630054559 74 140 0.0 4.0 0.00 0.02 0.00 78 1019.5
20220630054058 74 159 0.0 4.0 0.00 0.02 0.00 78 1019.5
20220630053557 74 161 0.0 4.0 0.00 0.02 0.00 78 1019.5
20220630053056 74 184 0.0 3.0 0.00 0.02 0.00 78 1019.5
20220630052558 74 159 0.0 5.0 0.00 0.02 0.00 78 1019.5
20220630052056 75 160 1.0 5.0 0.00 0.02 0.00 77 1019.5
20220630051558 75 171 1.0 4.0 0.00 0.02 0.00 77 1019.5
20220630051050 75 144 1.0 5.0 0.00 0.02 0.00 77 1019.5
20220630050549 75 180 1.0 5.0 0.00 0.02 0.00 76 1019.5